STARLINK-30968, 58511

Orbit data source: Space-Track

STARLINK-30968, 58511 is a payload satellite owned by SpaceX/Seattle (US) in LEO that was launched on Thu, 07 Dec 2023 UTC via an FALCON 9 launch vehicle from the Air Force Eastern Test Range (AFETR). Payload-class satellites include a variety of spacecraft equipped with specific instruments for various scientific and technological missions. These include communications satellites like Starlink; space stations such as the ISS; scientific satellites like the Hubble; Earth observation satellites from companies like Planet Labs, Umbra, and HawkEye 360; GPS; miniature CubeSats for education and research; and military/defense satellites.

Loading next visibility...
Identifier
58511, 2023-191D
Orbit
LEO
Country
Flag of USUS
Related business
Manufacturer
SpaceX/Seattle
Mission
Operational Commercial Communications
Bus & Motor
STARLINK V2M, Unknown motor
Mass
730 kg wet, ~700 kg dry
Launch date (UTC)
2023-12-07 (3 years ago)
Launch vehicle
FALCON 9
Launch site
Air Force Eastern Test Range (AFETR)
Object type
Payload
Rocket body
Debris
Shape & HBR
Box + 2 Pan, 17.7 m
Radar Cross Section
33.884 m², Large (>1 m²)

Expand to show TLE details & history
Last TLE update: 2 days ago

TLE from 2 days ago
0 STARLINK-30968
1 58511U 23191D   26171.25474288  .00000426  00000-0  24985-4 0  9997
2 58511  43.0002 244.5187 0000932 261.9944  98.0802 15.27577162141153
Epoch: 2026-06-20T06:06Z
TLE epoch observation values (Epoch: 2026-06-20T06:06:49.784Z)
Latitude
-0.00003°
Longitude
-115.66076°
Altitude
482.923 km
Speed
7.626 km/s
True Right ascension
16h 18m 04s
True Declination
0° 00' 00"
Sunlit
Object was in full shadow at epoch
Visualization orbit readout
Latitude
Unknown
Longitude
Unknown
Altitude
Unknown
Speed
Unknown
Apparent Right ascension
Unknown
Apparent Declination
Unknown
Sunlit
N/A
Visualization observer readout
Local Sidereal Time
23:20:27
Azimuth
Unknown
Elevation
Unknown
Doppler factor
Unknown
Orbital elements
Apogee altitude
485.642 km
Perigee altitude
484.363 km
Semi-major axis
6,863.14 km
Eccentricity
0.00009
Inclination
43.0002°
RAAN
244.5187°
Arg. of periapsis
261.9944°
True anomaly
98.09077°
Mean anomaly
98.0802°
Eccentric anomaly
98.08549°
Mean motion
3.81732 °/min
Orbital period
94.31 mins
BSTAR
0.000024985
Loading maneuver chart data...
Computing Atmospheric mass density...
Loading historical data...
Loading historical data...
Loading historical data...
Loading historical data...
Loading historical data...
Loading historical data...
Loading historical data...

Documentation

Showing up to 5 results
|